Regional Weather Roundup
Issued by NWS Burlington, VT

Current Version | Previous Version | Text Only | Print | Product List | Glossary On
Versions: 1 2 3 4 5 6 7 8 9 10 11 12 13 14 15 16 17 18 19 20 21 22 23 24 25 26 27 28 29 30 31 32 33 34 35 36 37 38 39 40 41 42 43 44 45 46 47 48 49 50
000
ASUS41 KBTV 221030
RWRBTV
VERMONT REGIONAL WEATHER ROUNDUP
NATIONAL WEATHER SERVICE BURLINGTON VT
600 AM EDT FRI SEP 22 2017

NOTE: "FAIR" INDICATES FEW OR NO CLOUDS BELOW 12,000 FEET WITH NO
SIGNIFICANT WEATHER AND/OR OBSTRUCTIONS TO VISIBILITY.

* THESE REPORTS ARE NOT UNDER NWS QUALITY CONTROL AND/OR DO NOT
  REPORT WEATHER SUCH AS PRECIPITATION AND FOG.

VTZ001>019-221100-
_____VERMONT_____


CITY           SKY/WX    TMP DP  RH WIND       PRES   REMARKS
BURLINGTON     CLOUDY    53  51  93 CALM      30.14R
MONTPELIER     FOG       47  47 100 CALM      30.19R VSB 1/4
MORRISVILLE    FOG       42  41  96 CALM      30.18R VSB 3/4
ST. JOHNSBURY*   N/A     46  46 100 MISG      30.14R
LYNDONVILLE*   FAIR      47  45  90 CALM      30.17R
MIDDLEBURY*    FAIR      50  49  96 CALM      30.12S
RUTLAND*       CLOUDY    52  49  89 SE6       30.13R
SPRINGFIELD    MOCLDY    48  46  93 CALM      30.13R
HIGHGATE*      FAIR      47  47 100 CALM      30.15R
NEWPORT*       FOG       46  46 100 CALM      30.18R VSB 1/4
BENNINGTON     CLOUDY    52  48  86 S3        30.10R
SUTTON*          N/A     50 N/A N/A MISG        N/A
ISLAND POND*     N/A     36 N/A N/A CALM        N/A
GALLUP MILLS*    N/A     43 N/A N/A MISG        N/A
UNION VILLAGE*   N/A     46 N/A N/A MISG        N/A
MT. MANSFIELD*   N/A     55 N/A N/A NE8G23      N/A

_____LAKE CHAMPLAIN_____


CITY           SKY/WX    TMP DP  RH WIND       PRES   REMARKS
BURTON ISLAND*   N/A     57  55  94 E1          N/A
COLCHESTER RF*   N/A     63  57  82 N10         N/A
DIAMOND ISL*     N/A     63  55  77 N10         N/A

$$

NYZ007-026>031-035-052-083-087-221100-
_____NORTHERN NEW YORK_____


CITY           SKY/WX    TMP DP  RH WIND       PRES   REMARKS
PLATTSBURGH    CLOUDY    49  48  97 CALM      30.14R
SARANAC LAKE   CLOUDY    38  38 100 CALM      30.15S
MASSENA        FOG       50  50 100 CALM      30.17R VSB 1/4
OGDENSBURG*    FAIR      52  51  97 CALM      30.15S FOG
POTSDAM*       CLEAR    N/A N/A N/A CALM      30.16R
STARK FALLS*     N/A     50 N/A N/A NE3         N/A
WATERTOWN      CLOUDY    53  52  96 NE7       30.13S
FT DRUM        CLOUDY    55  50  86 E3        30.13S
ALBANY         CLOUDY    58  53  84 N5        30.09S
GLENS FALLS    CLOUDY    51  49  92 CALM      30.10R

$$
NHZ002-005-011-221100-
_____NEW HAMPSHIRE_____


CITY           SKY/WX    TMP DP  RH WIND       PRES   REMARKS
LEBANON        FOG       53  52  96 N5        30.13R VSB 1/2
KEENE          CLOUDY    59  48  67 N9        30.08R
MT WASHINGTON  PTCLDY    46  10  23 E35         N/A
PLYMOUTH       FOG       48  47  97 CALM      30.13R VSB 1/4
WHITEFIELD     CLOUDY    46  42  86 NW5       30.15R

$$

_____REGIONAL QUEBEC LOCATIONS_____


CITY           SKY/WX    TMP DP  RH WIND       PRES   REMARKS
MONTREAL       PTCLDY    57  54  88 N12       30.15R
QUEBEC CITY    PTCLDY    52  48  87 N6        30.19S
SHERBROOKE     CLEAR     43  41  93 CALM      30.17R

_____REGIONAL ONTARIO LOCATIONS_____


CITY           SKY/WX    TMP DP  RH WIND       PRES   REMARKS
OTTAWA         PTCLDY    55  52  88 NE7       30.16R

______KEY______
VSB  - VISIBILITY IN MILES
WCI  - WIND CHILL INDEX
HX   - HEAT INDEX
$$
NNNN



USA.gov is the U.S. government's official web portal to all federal, state and local government web resources and services.